Location: Newark
(46.0333°N, 5.8167°E)
Time: 11:39:27
(UTC+00:00)

Envisat - Pass Details

Date: 24 September 2019
Orbit: 764 x 766 km, 98.1° (Epoch: 14 October)

Event Time Altitude Azimuth Distance (km) Brightness Sun altitude
Rises 18:34:22 0° 194° (SSW) 3,219 6.3 -11.7°
Reaches altitude 10° 18:36:57 10° 206° (SSW) 2,298 5.7 -12.2°
Maximum altitude 18:41:19 29° 266° (W) 1,387 5.2 -12.9°
Drops below altitude 10° 18:45:43 10° 326° (NW) 2,312 6.2 -13.6°
Sets 18:48:20 0° 337° (NNW) 3,243 6.8 -14.1°
